Torna al catalogo

STARLINK-35085

AttivoComunicazioniVLEO
NORAD 65419·PAYLOAD·🇺🇸 United States

Lanciato Aug 31, 2025 da Cape Canaveral Space Force Station

Loading…

Prossimi Passaggi (prossime 24 ore)

TLE

AggiornatoSource: CelesTrak SupGP

Epoca: Sep 15, 2026, 03:31 UTC

1 65419C 25192R   26258.14701389 -.00030799  00000+0 -99088-3 0  2584
2 65419  53.1573  70.3577 0001073  94.4865 100.6890 15.31702942    16

Traccia STARLINK-35085 in tempo reale con AllMySat

Download on the App Store